Location: Barruelo
(41.2448°N, 3.8231°W)
Time: 21:02:52
(UTC+00:00)

YAOGAN 1 - Visible Passes

Search period start: 16 March 2026 00:00
Search period end: 26 March 2026 00:00
Orbit: 604 x 607 km, 97.8° (Epoch: 16 March)

Date Brightness Start Highest point End Pass type
(mag) Time Alt. Az. Time Alt. Az. Time Alt. Az.
16 Mar 5.4 19:44:01 10° SW 19:47:02 19° W 19:50:04 10° NW visible
17 Mar 5.7 19:57:45 10° WSW 19:59:54 14° W 20:02:05 10° WNW visible
19 Mar 2.7 18:45:01 10° S 18:49:15 83° WSW 18:53:32 10° NNW visible
20 Mar 3.3 18:57:50 10° S 19:02:01 59° W 19:06:14 10° NNW visible
21 Mar 4.0 19:10:47 10° S 19:14:48 41° W 19:18:51 10° NNW visible
22 Mar 4.7 19:23:52 10° SSW 19:27:35 30° W 19:31:21 10° NW visible
23 Mar 5.2 19:37:07 10° SW 19:40:25 22° W 19:43:45 10° NW visible
24 Mar 5.6 19:50:38 10° SW 19:53:17 16° W 19:55:55 10° NW visible
25 Mar 5.8 20:04:42 10° WSW 20:06:08 11° W 20:07:35 10° WNW visible
